| time (UTC) | temp F | wind direction | speed MPH | gust MPH | rain 1hr in | rain 24hr in | rain mn in | humidity % | barometer mb |
| 20260509173537 | 87 | 327 | 3.0 | 6.0 | 0.00 | 0.00 | 0.00 | 49 | 1012.1 |
| 20260509172516 | 87 | 332 | 0.0 | 3.0 | 0.00 | 0.00 | 0.00 | 49 | 1012.2 |
| 20260509171516 | 86 | 285 | 1.0 | 5.0 | 0.00 | 0.00 | 0.00 | 52 | 1012.3 |
| 20260509170516 | 86 | 306 | 3.0 | 7.0 | 0.00 | 0.00 | 0.00 | 52 | 1012.2 |
| 20260509165516 | 86 | 280 | 1.0 | 5.0 | 0.00 | 0.00 | 0.00 | 54 | 1012.3 |
| 20260509164516 | 86 | 300 | 2.0 | 7.0 | 0.00 | 0.00 | 0.00 | 56 | 1012.4 |
| 20260509163516 | 86 | 302 | 1.0 | 4.0 | 0.00 | 0.00 | 0.00 | 55 | 1012.6 |
| 20260509162516 | 85 | 283 | 1.0 | 4.0 | 0.00 | 0.00 | 0.00 | 59 | 1012.5 |
| 20260509161516 | 84 | 297 | 1.0 | 4.0 | 0.00 | 0.00 | 0.00 | 60 | 1012.5 |
| 20260509160516 | 83 | 287 | 1.0 | 6.0 | 0.00 | 0.00 | 0.00 | 61 | 1012.5 |
| 20260509155516 | 82 | 303 | 0.0 | 5.0 | 0.00 | 0.00 | 0.00 | 64 | 1012.5 |
| 20260509154516 | 81 | 305 | 1.0 | 8.0 | 0.00 | 0.00 | 0.00 | 62 | 1012.6 |
| 20260509153516 | 81 | 332 | 2.0 | 6.0 | 0.00 | 0.00 | 0.00 | 61 | 1012.5 |
| 20260509152516 | 81 | 309 | 3.0 | 6.0 | 0.00 | 0.00 | 0.00 | 61 | 1012.4 |
| 20260509151516 | 81 | 305 | 3.0 | 8.0 | 0.00 | 0.00 | 0.00 | 61 | 1012.4 |
| 20260509150517 | 80 | 39 | 3.0 | 7.0 | 0.00 | 0.00 | 0.00 | 62 | 1012.3 |
| 20260509145516 | 80 | 303 | 3.0 | 9.0 | 0.00 | 0.00 | 0.00 | 63 | 1012.4 |
| 20260509144516 | 80 | 296 | 3.0 | 7.0 | 0.00 | 0.00 | 0.00 | 63 | 1012.4 |
| 20260509143516 | 80 | 47 | 3.0 | 9.0 | 0.00 | 0.00 | 0.00 | 64 | 1012.3 |
| 20260509142517 | 79 | 336 | 0.0 | 5.0 | 0.00 | 0.00 | 0.00 | 69 | 1012.3 |
| 20260509141516 | 77 | 5 | 0.0 | 7.0 | 0.00 | 0.00 | 0.00 | 73 | 1012.2 |
| 20260509140516 | 76 | 300 | 3.0 | 9.0 | 0.00 | 0.00 | 0.00 | 73 | 1012.0 |
| 20260509135617 | 75 | 324 | 4.0 | 12.0 | 0.00 | 0.00 | 0.00 | 76 | 1011.8 |
| 20260509134516 | 74 | 5 | 5.0 | 14.0 | 0.00 | 0.00 | 0.00 | 78 | 1011.7 |
| 20260509133536 | 74 | 324 | 4.0 | 12.0 | 0.00 | 0.00 | 0.00 | 78 | 1011.7 |
| 20260509132536 | 73 | 321 | 4.0 | 9.0 | 0.00 | 0.00 | 0.00 | 79 | 1011.6 |
| 20260509131516 | 73 | 42 | 7.0 | 14.0 | 0.00 | 0.00 | 0.00 | 79 | 1011.3 |
| 20260509130516 | 72 | 24 | 5.0 | 12.0 | 0.00 | 0.00 | 0.00 | 79 | 1011.2 |
| 20260509125516 | 71 | 302 | 4.0 | 12.0 | 0.00 | 0.00 | 0.00 | 80 | 1011.2 |
| 20260509124516 | 71 | 305 | 4.0 | 9.0 | 0.00 | 0.00 | 0.00 | 79 | 1011.4 |
| 20260509123516 | 71 | 302 | 3.0 | 6.0 | 0.00 | 0.00 | 0.00 | 81 | 1011.3 |
| 20260509122516 | 70 | 301 | 3.0 | 7.0 | 0.00 | 0.00 | 0.00 | 83 | 1011.3 |
| 20260509121516 | 70 | 302 | 2.0 | 4.0 | 0.00 | 0.00 | 0.00 | 85 | 1011.2 |
| 20260509120516 | 70 | 40 | 3.0 | 6.0 | 0.00 | 0.00 | 0.00 | 90 | 1011.2 |
| 20260509115516 | 70 | 352 | 1.0 | 4.0 | 0.00 | 0.00 | 0.00 | 92 | 1011.4 |
| 20260509114516 | 70 | 301 | 1.0 | 3.0 | 0.00 | 0.00 | 0.00 | 91 | 1011.4 |
| 20260509113516 | 70 | 293 | 2.0 | 7.0 | 0.00 | 0.00 | 0.00 | 92 | 1011.6 |
| 20260509112516 | 70 | 297 | 2.0 | 5.0 | 0.00 | 0.00 | 0.00 | 93 | 1011.8 |
| 20260509111516 | 70 | 297 | 4.0 | 8.0 | 0.00 | 0.00 | 0.00 | 93 | 1011.7 |
| 20260509110516 | 70 | 299 | 5.0 | 11.0 | 0.00 | 0.00 | 0.00 | 94 | 1011.4 |
| 20260509105536 | 70 | 300 | 5.0 | 10.0 | 0.00 | 0.00 | 0.00 | 95 | 1011.1 |
| 20260509104516 | 70 | 302 | 4.0 | 11.0 | 0.00 | 0.00 | 0.00 | 96 | 1010.7 |
| 20260509103516 | 69 | 272 | 1.0 | 10.0 | 0.00 | 0.00 | 0.00 | 96 | 1010.0 |
| 20260509102516 | 69 | 302 | 2.0 | 5.0 | 0.00 | 0.00 | 0.00 | 97 | 1010.1 |
| 20260509101536 | 69 | 140 | 2.0 | 8.0 | 0.00 | 0.00 | 0.00 | 97 | 1009.4 |
| 20260509100516 | 69 | 141 | 3.0 | 9.0 | 0.00 | 0.00 | 0.00 | 96 | 1009.2 |
| 20260509095536 | 69 | 122 | 5.0 | 10.0 | 0.00 | 0.00 | 0.00 | 97 | 1008.9 |
| 20260509094536 | 69 | 139 | 5.0 | 11.0 | 0.00 | 0.00 | 0.00 | 97 | 1008.8 |
| 20260509093516 | 69 | 142 | 4.0 | 11.0 | 0.00 | 0.00 | 0.00 | 97 | 1008.9 |
| 20260509092536 | 69 | 138 | 3.0 | 8.0 | 0.00 | 0.00 | 0.00 | 97 | 1009.3 |
| 20260509091516 | 69 | 139 | 3.0 | 8.0 | 0.00 | 0.00 | 0.00 | 97 | 1009.7 |
| 20260509090516 | 69 | 138 | 1.0 | 5.0 | 0.00 | 0.00 | 0.00 | 97 | 1010.0 |
| 20260509085516 | 68 | 149 | 1.0 | 5.0 | 0.00 | 0.00 | 0.00 | 96 | 1010.4 |
| 20260509084516 | 68 | 140 | 2.0 | 6.0 | 0.00 | 0.00 | 0.00 | 96 | 1010.4 |
| 20260509083516 | 69 | 147 | 2.0 | 6.0 | 0.00 | 0.00 | 0.00 | 96 | 1010.7 |
| 20260509082515 | 69 | 146 | 2.0 | 8.0 | 0.00 | 0.00 | 0.00 | 95 | 1010.7 |
| 20260509081516 | 69 | 137 | 2.0 | 6.0 | 0.00 | 0.00 | 0.00 | 95 | 1011.4 |
| 20260509080516 | 69 | 138 | 2.0 | 8.0 | 0.00 | 0.00 | 0.00 | 94 | 1011.8 |
| 20260509075515 | 69 | 152 | 1.0 | 3.0 | 0.00 | 0.00 | 0.00 | 94 | 1012.8 |
| 20260509074515 | 70 | 280 | 0.0 | 4.0 | 0.00 | 0.00 | 0.00 | 94 | 1013.3 |
| 20260509073516 | 69 | 298 | 8.0 | 15.0 | 0.00 | 0.00 | 0.00 | 95 | 1013.9 |
| 20260509072518 | 68 | 302 | 6.0 | 10.0 | 0.00 | 0.00 | 0.00 | 96 | 1013.9 |
| 20260509071518 | 68 | 289 | 3.0 | 5.0 | 0.00 | 0.00 | 0.00 | 96 | 1013.4 |
| 20260509070538 | 68 | 299 | 3.0 | 7.0 | 0.00 | 0.00 | 0.00 | 96 | 1013.3 |
| 20260509065538 | 68 | 317 | 1.0 | 5.0 | 0.00 | 0.00 | 0.00 | 96 | 1013.4 |
| 20260509064518 | 67 | 251 | 1.0 | 3.0 | 0.00 | 0.00 | 0.00 | 97 | 1013.0 |
| 20260509063518 | 67 | 209 | 0.0 | 3.0 | 0.00 | 0.00 | 0.00 | 97 | 1012.8 |
| 20260509062519 | 67 | 155 | 0.0 | 1.0 | 0.00 | 0.00 | 0.00 | 96 | 1012.5 |
| 20260509061538 | 67 | 155 | 0.0 | 1.0 | 0.00 | 0.00 | 0.00 | 96 | 1012.3 |
| 20260509060518 | 67 | 0.0 | 0.0 | 0.00 | 0.00 | 0.00 | 95 | 1011.9 | |
| 20260509055518 | 68 | 0.0 | 0.0 | 0.00 | 0.00 | 0.00 | 95 | 1012.0 | |
| 20260509054518 | 68 | 0.0 | 1.0 | 0.00 | 0.00 | 0.00 | 95 | 1011.9 | |
| 20260509053558 | 68 | 119 | 0.0 | 2.0 | 0.00 | 0.00 | 0.00 | 95 | 1011.9 |
| 20260509052518 | 68 | 0.0 | 1.0 | 0.00 | 0.00 | 0.00 | 95 | 1012.1 | |
| 20260509051518 | 68 | 119 | 0.0 | 3.0 | 0.00 | 0.00 | 0.00 | 95 | 1012.1 |
| 20260509050518 | 68 | 91 | 1.0 | 3.0 | 0.00 | 0.00 | 0.00 | 95 | 1012.4 |
| 20260509045518 | 68 | 101 | 2.0 | 3.0 | 0.00 | 0.00 | 0.00 | 94 | 1012.0 |
| 20260509044537 | 69 | 116 | 0.0 | 2.0 | 0.00 | 0.00 | 0.00 | 94 | 1011.9 |
| 20260509043518 | 69 | 124 | 1.0 | 2.0 | 0.00 | 0.00 | 0.00 | 93 | 1011.7 |
| 20260509042558 | 69 | 124 | 1.0 | 2.0 | 0.00 | 0.00 | 0.00 | 93 | 1011.7 |
| 20260509041518 | 69 | 126 | 0.0 | 2.0 | 0.00 | 0.00 | 0.00 | 93 | 1011.8 |
| 20260509040518 | 70 | 138 | 0.0 | 2.0 | 0.00 | 0.00 | 0.00 | 92 | 1011.7 |
| 20260509035518 | 70 | 142 | 1.0 | 5.0 | 0.00 | 0.00 | 0.00 | 92 | 1011.6 |
| 20260509034539 | 70 | 152 | 0.0 | 2.0 | 0.00 | 0.00 | 0.00 | 91 | 1011.5 |
| 20260509033517 | 71 | 146 | 0.0 | 2.0 | 0.00 | 0.00 | 0.00 | 91 | 1011.5 |
| 20260509032518 | 71 | 142 | 1.0 | 3.0 | 0.00 | 0.00 | 0.00 | 90 | 1011.6 |
| 20260509031538 | 71 | 134 | 0.0 | 2.0 | 0.00 | 0.00 | 0.00 | 90 | 1011.5 |
| 20260509030538 | 72 | 150 | 0.0 | 1.0 | 0.00 | 0.00 | 0.00 | 90 | 1011.6 |
| 20260509025517 | 72 | 152 | 0.0 | 3.0 | 0.00 | 0.00 | 0.00 | 89 | 1011.2 |
| 20260509024518 | 72 | 140 | 1.0 | 5.0 | 0.00 | 0.00 | 0.00 | 89 | 1010.9 |
| 20260509023518 | 72 | 128 | 1.0 | 4.0 | 0.00 | 0.00 | 0.00 | 88 | 1010.9 |
| 20260509022518 | 72 | 141 | 0.0 | 5.0 | 0.00 | 0.00 | 0.00 | 88 | 1010.9 |
| 20260509021518 | 73 | 144 | 1.0 | 5.0 | 0.00 | 0.00 | 0.00 | 87 | 1011.0 |
| 20260509020517 | 73 | 148 | 1.0 | 3.0 | 0.00 | 0.00 | 0.00 | 87 | 1010.8 |
| 20260509015518 | 73 | 145 | 1.0 | 3.0 | 0.00 | 0.00 | 0.00 | 87 | 1010.7 |
| 20260509014518 | 73 | 147 | 1.0 | 4.0 | 0.00 | 0.00 | 0.00 | 87 | 1010.7 |
| 20260509013538 | 73 | 148 | 1.0 | 5.0 | 0.00 | 0.00 | 0.00 | 86 | 1010.6 |
| 20260509012518 | 73 | 133 | 0.0 | 3.0 | 0.00 | 0.00 | 0.00 | 86 | 1010.4 |
| 20260509011516 | 74 | 122 | 1.0 | 5.0 | 0.00 | 0.00 | 0.00 | 86 | 1010.2 |
| 20260509010518 | 74 | 137 | 1.0 | 5.0 | 0.00 | 0.00 | 0.00 | 85 | 1010.0 |
| 20260509005517 | 75 | 133 | 1.0 | 6.0 | 0.00 | 0.00 | 0.00 | 84 | 1009.9 |
| 20260509004517 | 75 | 129 | 0.0 | 2.0 | 0.00 | 0.00 | 0.00 | 83 | 1009.8 |
| 20260509003517 | 76 | 130 | 1.0 | 4.0 | 0.00 | 0.00 | 0.00 | 81 | 1009.9 |
| 20260509002518 | 76 | 120 | 0.0 | 1.0 | 0.00 | 0.00 | 0.00 | 81 | 1010.0 |
| 20260509001518 | 77 | 150 | 1.0 | 5.0 | 0.00 | 0.00 | 0.00 | 80 | 1010.1 |
| 20260509000518 | 78 | 124 | 0.0 | 1.0 | 0.00 | 0.00 | 0.00 | 78 | 1010.1 |
| 20260508235516 | 79 | 146 | 1.0 | 5.0 | 0.00 | 0.00 | 0.00 | 76 | 1010.0 |
| 20260508234517 | 80 | 136 | 1.0 | 6.0 | 0.00 | 0.00 | 0.00 | 75 | 1009.9 |
| 20260508233517 | 80 | 146 | 2.0 | 7.0 | 0.00 | 0.00 | 0.00 | 76 | 1009.7 |
| 20260508232517 | 79 | 151 | 2.0 | 10.0 | 0.00 | 0.00 | 0.00 | 77 | 1009.5 |
| 20260508231517 | 79 | 134 | 3.0 | 11.0 | 0.00 | 0.00 | 0.00 | 77 | 1009.7 |
| 20260508230517 | 80 | 139 | 5.0 | 10.0 | 0.00 | 0.00 | 0.00 | 74 | 1009.9 |
| 20260508225517 | 80 | 145 | 2.0 | 8.0 | 0.00 | 0.00 | 0.00 | 74 | 1009.9 |
| 20260508224538 | 79 | 141 | 2.0 | 8.0 | 0.00 | 0.00 | 0.00 | 75 | 1009.8 |
| 20260508223518 | 80 | 141 | 3.0 | 10.0 | 0.00 | 0.00 | 0.00 | 74 | 1009.9 |
| 20260508222517 | 80 | 134 | 1.0 | 8.0 | 0.00 | 0.00 | 0.00 | 75 | 1010.3 |
| 20260508221517 | 79 | 136 | 3.0 | 7.0 | 0.00 | 0.00 | 0.00 | 75 | 1010.3 |
| 20260508220518 | 79 | 124 | 1.0 | 6.0 | 0.00 | 0.00 | 0.00 | 75 | 1010.5 |
| 20260508215517 | 79 | 124 | 1.0 | 6.0 | 0.00 | 0.00 | 0.00 | 75 | 1010.4 |
| 20260508214518 | 79 | 159 | 0.0 | 4.0 | 0.00 | 0.00 | 0.00 | 75 | 1010.6 |
| 20260508213517 | 77 | 237 | 0.0 | 3.0 | 0.00 | 0.00 | 0.00 | 77 | 1010.8 |
| 20260508212517 | 76 | 130 | 3.0 | 7.0 | 0.00 | 0.00 | 0.00 | 78 | 1010.9 |
| 20260508211518 | 74 | 135 | 1.0 | 9.0 | 0.00 | 0.00 | 0.00 | 81 | 1011.1 |
| 20260508210517 | 73 | 127 | 4.0 | 10.0 | 0.00 | 0.00 | 0.00 | 82 | 1010.9 |
| 20260508205518 | 72 | 117 | 7.0 | 15.0 | 0.00 | 0.00 | 0.00 | 81 | 1010.8 |
| 20260508204517 | 72 | 127 | 6.0 | 14.0 | 0.00 | 0.00 | 0.00 | 81 | 1010.9 |
| 20260508203517 | 71 | 124 | 6.0 | 12.0 | 0.00 | 0.00 | 0.00 | 81 | 1011.1 |
| 20260508202517 | 71 | 112 | 8.0 | 14.0 | 0.00 | 0.00 | 0.00 | 81 | 1011.6 |
| 20260508201518 | 71 | 109 | 6.0 | 12.0 | 0.00 | 0.00 | 0.00 | 81 | 1012.0 |
| 20260508200517 | 70 | 107 | 3.0 | 7.0 | 0.00 | 0.00 | 0.00 | 79 | 1012.4 |
| 20260508195517 | 71 | 133 | 2.0 | 5.0 | 0.00 | 0.00 | 0.00 | 80 | 1012.7 |
| 20260508194517 | 71 | 135 | 1.0 | 5.0 | 0.00 | 0.00 | 0.00 | 79 | 1013.0 |
| 20260508193517 | 71 | 143 | 1.0 | 5.0 | 0.00 | 0.00 | 0.00 | 80 | 1013.0 |
| 20260508192517 | 70 | 135 | 2.0 | 5.0 | 0.00 | 0.00 | 0.00 | 80 | 1013.0 |
| 20260508191558 | 70 | 144 | 3.0 | 8.0 | 0.00 | 0.00 | 0.00 | 80 | 1012.8 |
| 20260508190517 | 69 | 115 | 2.0 | 7.0 | 0.00 | 0.00 | 0.00 | 81 | 1012.8 |
| 20260508185517 | 69 | 129 | 3.0 | 8.0 | 0.00 | 0.00 | 0.00 | 79 | 1013.1 |
| 20260508184517 | 70 | 159 | 2.0 | 5.0 | 0.00 | 0.00 | 0.00 | 78 | 1013.3 |
| 20260508183517 | 70 | 144 | 1.0 | 7.0 | 0.00 | 0.00 | 0.00 | 77 | 1013.6 |
| 20260508182517 | 70 | 124 | 2.0 | 6.0 | 0.00 | 0.00 | 0.00 | 77 | 1013.6 |
| 20260508181537 | 70 | 134 | 1.0 | 6.0 | 0.00 | 0.00 | 0.00 | 77 | 1013.8 |
| 20260508180517 | 70 | 134 | 2.0 | 7.0 | 0.00 | 0.00 | 0.00 | 77 | 1014.0 |
| 20260508175517 | 71 | 140 | 4.0 | 12.0 | 0.00 | 0.00 | 0.00 | 75 | 1014.2 |
| 20260508174517 | 71 | 128 | 2.0 | 7.0 | 0.00 | 0.00 | 0.00 | 75 | 1014.4 |